Location: Newark
(31.0436°N, 112.2008°E)
Time: 01:54:42
(UTC+00:00)

LightSail 2 - Pass Details

Date: 26 January 2020
Orbit: 699 x 722 km, 24.0° (Epoch: 21 February)

Event Time Altitude Azimuth Distance (km) Brightness Sun altitude
Rises 11:23:55 0° 261° (W) 3,076 10.2 -17.9°
Reaches altitude 10° 11:26:37 10° 250° (WSW) 2,161 8.9 -18.5°
Maximum altitude 11:30:54 27° 193° (SSW) 1,329 6.8 -19.4°
Enters shadow 11:34:07 15° 144° (SE) 1,848 7.0 -20.1°
